TimeEDT,TemperatureF,Dew PointF,Humidity,Sea Level PressureIn,VisibilityMPH,Wind Direction,Wind SpeedMPH,Gust SpeedMPH,PrecipitationIn,Events,Conditions,WindDirDegrees,DateUTC
12:15 AM,45.0,36.0,71,30.10,10.0,NW,4.6,-,N/A,,Clear,310,2013-05-13 04:15:00
12:35 AM,43.3,36.5,77,30.10,10.0,NNW,4.6,-,N/A,,Clear,330,2013-05-13 04:35:00
12:55 AM,43.7,35.4,73,30.10,10.0,SW,3.5,-,N/A,,Clear,230,2013-05-13 04:55:00
1:15 AM,41.5,37.4,85,30.09,10.0,Calm,Calm,-,N/A,,Clear,0,2013-05-13 05:15:00
1:35 AM,40.6,36.7,86,30.09,10.0,Calm,Calm,-,N/A,,Clear,0,2013-05-13 05:35:00
1:55 AM,41.7,37.4,85,30.09,10.0,Calm,Calm,-,N/A,,Clear,0,2013-05-13 05:55:00
2:15 AM,39.2,37.8,95,30.09,10.0,Calm,Calm,-,N/A,,Clear,0,2013-05-13 06:15:00
2:35 AM,38.3,37.4,97,30.09,10.0,NW,3.5,-,N/A,,Clear,310,2013-05-13 06:35:00
2:55 AM,38.5,37.0,95,30.10,10.0,Calm,Calm,-,N/A,,Clear,0,2013-05-13 06:55:00
3:15 AM,37.8,36.7,96,30.09,10.0,NW,5.8,-,N/A,,Clear,310,2013-05-13 07:15:00
3:35 AM,38.3,37.0,95,30.08,10.0,WNW,5.8,-,N/A,,Clear,290,2013-05-13 07:35:00
3:55 AM,36.9,36.1,97,30.09,10.0,West,3.5,-,N/A,,Clear,260,2013-05-13 07:55:00
4:15 AM,39.4,36.1,88,30.10,10.0,Calm,Calm,-,N/A,,Clear,0,2013-05-13 08:15:00
4:35 AM,37.8,36.3,95,30.10,10.0,Calm,Calm,-,N/A,,Clear,0,2013-05-13 08:35:00
4:55 AM,36.7,36.1,98,30.10,10.0,Calm,Calm,-,N/A,,Clear,0,2013-05-13 08:55:00
5:15 AM,36.5,35.6,97,30.11,10.0,Calm,Calm,-,N/A,,Clear,0,2013-05-13 09:15:00
5:35 AM,36.1,35.8,99,30.12,10.0,Calm,Calm,-,N/A,,Clear,0,2013-05-13 09:35:00
5:55 AM,34.7,34.3,99,30.13,10.0,Calm,Calm,-,N/A,,Clear,0,2013-05-13 09:55:00
6:15 AM,36.7,35.6,96,30.14,10.0,Calm,Calm,-,N/A,,Clear,0,2013-05-13 10:15:00
6:35 AM,36.7,35.8,97,30.14,10.0,Calm,Calm,-,N/A,,Clear,0,2013-05-13 10:35:00
6:55 AM,40.1,37.0,89,30.15,10.0,NNW,4.6,-,N/A,,Clear,330,2013-05-13 10:55:00
7:15 AM,42.4,40.8,94,30.15,10.0,Calm,Calm,-,N/A,,Clear,0,2013-05-13 11:15:00
7:35 AM,47.1,41.7,81,30.15,10.0,Calm,Calm,-,N/A,,Clear,0,2013-05-13 11:35:00
7:55 AM,49.1,36.7,62,30.15,10.0,North,5.8,-,N/A,,Clear,10,2013-05-13 11:55:00
8:15 AM,52.0,35.4,53,30.15,10.0,North,5.8,-,N/A,,Clear,10,2013-05-13 12:15:00
8:35 AM,54.7,36.1,50,30.16,10.0,WSW,5.8,-,N/A,,Scattered Clouds,240,2013-05-13 12:35:00
8:55 AM,54.1,37.2,53,30.16,10.0,Calm,Calm,-,N/A,,Scattered Clouds,0,2013-05-13 12:55:00
9:15 AM,55.2,36.3,49,30.16,10.0,SSW,4.6,-,N/A,,Clear,210,2013-05-13 13:15:00
9:35 AM,55.2,32.2,42,30.17,10.0,SW,5.8,-,N/A,,Clear,230,2013-05-13 13:35:00
9:55 AM,57.2,30.6,36,30.16,10.0,NW,6.9,-,N/A,,Clear,310,2013-05-13 13:55:00
10:15 AM,56.8,30.9,37,30.17,10.0,West,10.4,16.1,N/A,,Mostly Cloudy,280,2013-05-13 14:15:00
10:35 AM,55.6,30.9,39,30.17,10.0,West,3.5,-,N/A,,Overcast,260,2013-05-13 14:35:00
10:55 AM,55.8,33.1,42,30.17,10.0,West,5.8,-,N/A,,Overcast,280,2013-05-13 14:55:00
11:15 AM,57.6,33.8,41,30.17,10.0,West,5.8,-,N/A,,Mostly Cloudy,260,2013-05-13 15:15:00
11:35 AM,56.7,33.6,42,30.17,10.0,NW,10.4,-,N/A,,Mostly Cloudy,320,2013-05-13 15:35:00
11:55 AM,55.8,31.8,40,30.17,10.0,WNW,11.5,18.4,N/A,,Mostly Cloudy,290,2013-05-13 15:55:00
12:15 PM,56.1,32.4,41,30.17,10.0,West,6.9,-,N/A,,Overcast,280,2013-05-13 16:15:00
12:35 PM,58.3,31.1,36,30.16,10.0,WNW,11.5,16.1,N/A,,Scattered Clouds,290,2013-05-13 16:35:00
12:55 PM,59.9,31.3,34,30.15,10.0,West,10.4,19.6,N/A,,Scattered Clouds,270,2013-05-13 16:55:00
1:15 PM,59.4,29.1,32,30.15,10.0,WNW,12.7,24.2,N/A,,Scattered Clouds,300,2013-05-13 17:15:00
1:35 PM,60.4,31.8,34,30.14,10.0,West,9.2,23.0,N/A,,Scattered Clouds,260,2013-05-13 17:35:00
1:55 PM,61.0,31.8,33,30.14,10.0,WNW,10.4,23.0,N/A,,Mostly Cloudy,290,2013-05-13 17:55:00
2:15 PM,60.1,29.5,31,30.13,10.0,NW,12.7,20.7,N/A,,Mostly Cloudy,310,2013-05-13 18:15:00
2:35 PM,59.0,28.9,32,30.13,10.0,NW,8.1,-,N/A,,Mostly Cloudy,310,2013-05-13 18:35:00
2:55 PM,58.6,29.5,33,30.12,10.0,WNW,5.8,-,N/A,,Mostly Cloudy,290,2013-05-13 18:55:00
3:15 PM,61.5,29.7,30,30.11,10.0,WNW,11.5,17.3,N/A,,Mostly Cloudy,290,2013-05-13 19:15:00
3:35 PM,59.0,28.9,32,30.11,10.0,WNW,9.2,-,N/A,,Overcast,300,2013-05-13 19:35:00
4:35 PM,62.1,28.4,28,30.09,10.0,WNW,10.4,19.6,N/A,,Mostly Cloudy,300,2013-05-13 20:35:00
4:55 PM,60.4,27.9,29,30.09,10.0,NW,11.5,17.3,N/A,,Mostly Cloudy,310,2013-05-13 20:55:00
5:15 PM,60.1,29.3,31,30.09,10.0,NNW,15.0,19.6,N/A,,Overcast,330,2013-05-13 21:15:00
5:35 PM,61.5,28.8,29,30.09,10.0,NW,18.4,24.2,N/A,,Scattered Clouds,320,2013-05-13 21:35:00
5:55 PM,59.9,27.9,30,30.09,10.0,NNW,16.1,25.3,N/A,,Scattered Clouds,330,2013-05-13 21:55:00
6:15 PM,60.1,29.8,32,30.09,10.0,NNW,11.5,20.7,N/A,,Scattered Clouds,330,2013-05-13 22:15:00
6:35 PM,59.4,28.8,31,30.10,10.0,WNW,13.8,20.7,N/A,,Scattered Clouds,290,2013-05-13 22:35:00
6:55 PM,57.7,27.9,32,30.10,10.0,WNW,17.3,-,N/A,,Clear,300,2013-05-13 22:55:00
7:35 PM,56.1,28.6,35,30.12,10.0,NW,9.2,17.3,N/A,,Clear,310,2013-05-13 23:35:00
8:15 PM,52.3,30.2,43,30.13,10.0,NW,8.1,-,N/A,,Clear,310,2013-05-14 00:15:00
8:35 PM,49.1,32.0,52,30.14,10.0,NW,3.5,-,N/A,,Clear,310,2013-05-14 00:35:00
8:55 PM,47.3,33.4,59,30.15,10.0,NW,4.6,-,N/A,,Clear,310,2013-05-14 00:55:00
9:15 PM,47.3,33.3,58,30.16,10.0,Calm,Calm,-,N/A,,Clear,0,2013-05-14 01:15:00
9:35 PM,45.0,35.6,70,30.17,10.0,Calm,Calm,-,N/A,,Clear,0,2013-05-14 01:35:00
9:55 PM,42.8,36.5,78,30.18,10.0,Calm,Calm,-,N/A,,Clear,0,2013-05-14 01:55:00
10:15 PM,41.4,36.7,83,30.19,10.0,Calm,Calm,-,N/A,,Clear,0,2013-05-14 02:15:00
10:35 PM,42.1,36.0,79,30.20,10.0,NW,3.5,-,N/A,,Clear,320,2013-05-14 02:35:00
10:55 PM,40.3,36.0,85,30.21,10.0,WNW,3.5,-,N/A,,Clear,290,2013-05-14 02:55:00
11:15 PM,41.9,34.9,76,30.21,10.0,NW,4.6,-,N/A,,Clear,320,2013-05-14 03:15:00
11:35 PM,40.5,35.8,83,30.22,10.0,NW,3.5,-,N/A,,Clear,310,2013-05-14 03:35:00
11:55 PM,39.9,35.8,85,30.22,10.0,NW,3.5,-,N/A,,Clear,310,2013-05-14 03:55:00